sat.trackr.live / text

‹ back to catalog

STARLINK-31794

NORAD 59803 · 2024-093X

PAYLOAD ACTIVE UNKNOWN

§ Identity

Operator
Country
US
Launch date
2024-05-18
Launch site
AFETR
Launch vehicle
Mass (kg)
RCS (m²)

Purposes: comms

External: N2YO · Heavens-Above · Gunter

§ Orbital elements

Epoch: 2026-09-21T03:22:06.481920Z

Period
94.27 min
Inclination
42.9979°
Eccentricity
0.0000965
Mean motion
15.27580246 rev/d
Perigee alt
482.4 km
Apogee alt
483.7 km
Semi-major
6,861.2 km
B*
1.7644e-5
RAAN
185.3855°
Arg perigee
276.0452°
Mean anomaly
84.0290°
Rev number
13,265

§ Raw data

STARLINK-317941 59803U 24093X   26264.14035280  .00000224  00000+0  17644-4 0  99992 59803  42.9979 185.3855 0000965 276.0452  84.0290 15.27580246132658

JSON: /api/v1/satellites/59803 · /tle

For live sub-satellite position, see the globe view (requires WebGL).

§ Visibility from observer

Set your observer location to see the next 7 days of passes ≥ 10°. The values pass through the URL so the page stays shareable.

No JS? Fill the form by hand. The geolocation button needs JavaScript.